Flag for Colombia Weather past 2 weeks in Cartagena, Colombia

Now
79 °F

Passing clouds.


Feels Like: 82 °F
Forecast: 77 / 87 °F
Wind: 5 mph from Northeast

Location: Cartagena / Rafael Nunez

Current Time: Apr 1, 2015 at 5:41:43 AM

Latest Report: Apr 1, 2015 at 5:00 AM


Visibility: N/A

Pressure: 29.80 "Hg

Humidity: 84%

Dew point: 73 °F

Location of CartagenaLocation

Historic Weather in Cartagena — Graph

°F

Cartagena temperature yesterday

Maximum temperature yesterday: 90 °F (at 2:00 PM)
Minimum temperature yesterday: 79 °F (at 12:00 AM)
Average temperature yesterday: 83 °F

Past Weeks' High & Low Weather Summary

 TemperatureHumidityPressure
High91 °F (Mar 21, 11:00 AM)94% (Mar 17, 7:00 AM)30.37 "Hg (Mar 17, 7:00 AM)
Low59 °F (Mar 28, 6:00 PM)52% (Mar 21, 11:00 AM)26.72 "Hg (Mar 27, 12:00 AM)
Average81 °F79%29.86 "Hg
* Reported Mar 17 4:00 AM — Apr 1 4:00 AM, Cartagena, Weather by CustomWeather, © 2015

Note: Actual official high and low records may vary slightly from our data, if they occured in-between our weather recording intervals... More about our weather records

Advertising

Cartagena weather history for previous 24 hours

 ConditionsComfort  
Time TempWeatherWind HumidityBarometerVisibility
4:00 AM
Wed, Apr 1
79 °FClear.7 mph89%29.79 "Hg10 mi
3:00 AM79 °FClear.6 mph84%29.81 "Hg10 mi
2:00 AM79 °FClear.10 mph84%29.83 "Hg10 mi
1:00 AM79 °FClear.12 mph84%29.83 "Hg10 mi
12:00 AM79 °FClear.12 mph84%29.85 "Hg10 mi
11:00 PM
Tue, Mar 31
79 °FClear.10 mph84%29.86 "Hg10 mi
10:00 PM79 °FClear.13 mph84%29.86 "Hg10 mi
9:00 PM81 °FClear.12 mph79%29.85 "Hg10 mi
8:00 PM81 °FClear.12 mph79%29.82 "Hg10 mi
7:00 PM81 °FClear.13 mph79%29.80 "Hg10 mi
6:00 PM79 °FSunny.12 mph79%29.70 "Hg10 mi
5:00 PM88 °FSunny.16 mph62%29.76 "Hg10 mi
4:00 PM88 °FPartly sunny.21 mph62%29.77 "HgN/A
3:00 PM90 °FScattered showers. Scattered clouds.16 mph71%29.79 "Hg6 mi
2:00 PM90 °FScattered showers. Scattered clouds.14 mph63%29.79 "Hg6 mi
1:00 PM88 °FScattered showers. Passing clouds.14 mph66%29.81 "Hg5 mi
12:00 PM88 °FPassing clouds.10 mph70%29.87 "HgN/A
11:00 AM88 °FScattered clouds.6 mph66%29.88 "HgN/A
10:00 AM88 °FPassing clouds.12 mph62%29.79 "HgN/A
9:00 AM82 °FPassing clouds.3 mph79%29.89 "HgN/A
8:00 AM81 °FScattered clouds.2 mph84%29.87 "HgN/A
7:00 AM79 °FPartly sunny.2 mph89%29.85 "HgN/A
6:00 AM79 °FPartly sunny.5 mph89%29.83 "HgN/A
Weather by CustomWeather, © 2015

See weather overviewHow to use our weather pages